Voltar ao catálogo

STARLINK-37331

AtivoComunicaçõesSSO
NORAD 68738·PAYLOAD·🇺🇸 United States

Lançado Apr 15, 2026 de Vandenberg Space Force Base

Loading…

Próximas Passagens (próximas 24 horas)

TLE

AtualizadoSource: CelesTrak SupGP

Época: Sep 14, 2026, 14:58 UTC

1 68738C 26082L   26257.62409722 -.00026549  00000+0 -82422-3 0  2579
2 68738  97.2847 119.8298 0001828  86.9558 257.4009 15.33449190    16

Acompanhe STARLINK-37331 em tempo real com AllMySat

Download on the App Store